Location: Unspecified
(0.0000°N, 0.0000°E)
Time: 12:04:55
(UTC+00:00)

Envisat - Pass Details

Date: 17 March 2019
Orbit: 764 x 766 km, 98.2° (Epoch: 24 March)

Event Time Altitude Azimuth Distance (km) Brightness Sun altitude
Rises 19:50:22 0° 192° (SSW) 3,231 6.4 -25.5°
Reaches altitude 10° 19:53:06 10° 206° (SSW) 2,302 5.8 -26.2°
Maximum altitude 19:57:03 23° 258° (WSW) 1,577 5.3 -27.2°
Drops below altitude 10° 20:01:00 10° 309° (NW) 2,294 6.0 -28.2°
Sets 20:03:43 0° 324° (NW) 3,216 6.7 -28.8°
